DECAYED

STARLINK-2337, 47880 (Decayed)

Orbit data source: Space-Track

STARLINK-2337, 47880 was a payload satellite owned by SpaceX/Seattle (US) in LEO that was launched on Sun, 14 Mar 2021 UTC via an FALCON 9 launch vehicle from the Air Force Eastern Test Range (AFETR). Payload-class satellites include a variety of spacecraft equipped with specific instruments for various scientific and technological missions. These include communications satellites like Starlink; space stations such as the ISS; scientific satellites like the Hubble; Earth observation satellites from companies like Planet Labs, Umbra, and HawkEye 360; GPS; miniature CubeSats for education and research; and military/defense satellites.

Not visible in the next 10 days
Identifier
47880, 2021-021W
Orbit
Decayed
Country
Flag of USUS
Related business
Manufacturer
SpaceX/Seattle
Mission
Decayed Commercial Communications
Bus & Motor
STARLINK, Unknown motor
Mass
260 kg wet, ~248 kg dry
Launch date (UTC)
2021-03-14 (5 years ago)
Launch vehicle
FALCON 9
Launch site
Air Force Eastern Test Range (AFETR)
Object type
Payload
Rocket body
Debris
Shape & HBR
Box + 1 Pan, 10.1 m
Radar Cross Section
13.562 m², Large (>1 m²)

Expand to show TLE details & history
Last TLE update: 1 year ago

TLE from 1 year ago
0 STARLINK-2337
1 47880U 21021W   25051.46463030  .20872890  12766-4  25867-3 0  9995
2 47880  53.0213 150.5044 0009381 341.0086  77.5127 16.49041975218618
Epoch: 2025-02-20T11:09Z
TLE epoch observation values (Epoch: 2025-02-20T11:09:04.057Z)
Latitude
43.14859°
Longitude
-122.83551°
Altitude
144.767 km
Speed
7.826 km/s
True Right ascension
13h 00m 17s
True Declination
42° 57' 39"
Sunlit
Object was in full shadow at epoch
Visualization orbit readout
Latitude
Unknown
Longitude
Unknown
Altitude
Unknown
Speed
Unknown
Apparent Right ascension
Unknown
Apparent Declination
Unknown
Sunlit
N/A
Visualization observer readout
Local Sidereal Time
21:28:21
Azimuth
Unknown
Elevation
Unknown
Doppler factor
Unknown
Orbital elements
Apogee altitude
148.269 km
Perigee altitude
136.036 km
Semi-major axis
6,520.289 km
Eccentricity
0.00094
Inclination
53.0213°
RAAN
150.5044°
Arg. of periapsis
341.0086°
True anomaly
77.61768°
Mean anomaly
77.5127°
Eccentric anomaly
77.56519°
Mean motion
4.12233 °/min
Orbital period
87.33 mins
BSTAR
0.00025867
Loading maneuver chart data...
Computing Atmospheric mass density...

Documentation

Showing up to 5 results
|